[[{"header":{"parameterUnit":"m.s-1","parameterCategory":2,"la1":30.2991,"la2":30.254,"lo1":-89.0895,"lo2":-89.0444,"dy":0.0017,"dx":0.0017,"nx":28,"ny":28,"refTime":"2024-05-31T09:00:00:Z","depth":"0","parameterNumber":2,"parameterNumberName":"U-component_of_CURRENTS"},"data":[0,0,0,0,0,0,0,0,0,0,0,0,0,0,0,0,0,0,0,0,0,0,0,0,0,0,0,0,0,0,0,0,0,0,0,0,0,0,0,0,0,0,0,0,0,0,0,0,0,0,0,0,0,0,0,0,0,0,0.2122,0.2122,0,0.2121,0.2121,0.2121,0.2106,0.2106,0.2106,0.2105,0.2109,0.211,0.211,0,0,0,0,0,0,0,0,0,0,0,0,0,0.2086,0.2087,0.2122,0.2122,0.2123,0.2121,0.2121,0.2121,0.2106,0.2106,0.2105,0.2105,0.2109,0.211,0.211,0,0,0,0,0,0,0,0,0,0,0,0,0,0.2094,0.2087,0.2122,0.2116,0.2116,0.2121,0.2121,0.2121,0.2106,0.2106,0.2105,0.2105,0.2109,0.211,0.211,0.212,0,0,0.2112,0.2112,0,0,0,0,0,0,0,0,0.2093,0.2095,0.2117,0.2117,0.2116,0.2115,0.211,0.2121,0.2106,0.2108,0.2105,0.2105,0.2113,0.2113,0.2111,0.212,0.212,0.2112,0.2112,0.2112,0.2112,0,0,0,0,0,0,0,0.2093,0.2095,0.212,0.2117,0.2117,0.2105,0.2106,0.2112,0.2111,0.2108,0.2107,0.211,0.2113,0.2111,0.2111,0.212,0.2112,0.2112,0.2112,0.2112,0.2164,0.2165,0,0,0,0,0,0,0.2098,0.2095,0.212,0.212,0.2106,0.2106,0.2107,0.2114,0.2111,0.2111,0.211,0.2109,0.211,0.2111,0.2111,0.2141,0.2112,0.2113,0.2113,0.2163,0.2164,0.2165,0,0,0,0,0,0,0.2098,0.2101,0.212,0.2108,0.211,0.2107,0.2116,0.2114,0.2115,0.2113,0.2112,0.2112,0.211,0.2111,0.2122,0.214,0.2113,0.2113,0.2161,0.2163,0.2164,0.2189,0,0,0,0,0,0,0.2097,0.2101,0.2105,0.2109,0.2111,0.2128,0.2116,0.2115,0.2118,0.2117,0.2115,0.2115,0.211,0.2121,0.2122,0.2141,0.2114,0.216,0.2162,0.2164,0.2187,0.2191,0.2195,0,0,0,0,0,0.2095,0.2103,0.2105,0.2108,0.2118,0.2129,0.2129,0.2124,0.2118,0.2122,0.2122,0.2115,0.2135,0.2122,0.2123,0.2142,0.2159,0.2161,0.2164,0.2185,0.219,0.2195,0,0,0,0,0,0,0.2082,0.2102,0.2105,0.2116,0.2125,0.2127,0.213,0.2128,0.213,0.213,0.2124,0.2124,0.2144,0.2141,0.2127,0.2165,0.2148,0.2151,0.2164,0.2169,0.2173,0.2166,0.2114,0,0,0,0,0,0.2084,0.2098,0.2112,0.212,0.2128,0.2131,0.2133,0.2134,0.2137,0.2137,0.2136,0.2141,0.2155,0.2159,0.2168,0.2184,0.2185,0.22,0.2204,0.2207,0.2204,0.223,0.2236,0.2173,0.2173,0.2173,0,0,0.2078,0.2093,0.2099,0.2119,0.2126,0.2135,0.2131,0.2142,0.2147,0.2139,0.2145,0.2156,0.2164,0.2184,0.2193,0.2182,0.2227,0.221,0.2213,0.2208,0.2233,0.2239,0.2244,0.2175,0.2174,0.2174,0,0,0.2077,0.2093,0.2105,0.2117,0.2135,0.214,0.2145,0.2155,0.2158,0.2169,0.2171,0.2191,0.22,0.2214,0.2221,0.2254,0.225,0.2262,0.2273,0.2299,0.2304,0.2308,0.2319,0.2324,0.2261,0.2261,0.2261,0,0.2068,0.2086,0.2108,0.2123,0.2131,0.2143,0.2153,0.2161,0.2169,0.2181,0.2174,0.2209,0.2215,0.2248,0.2259,0.2263,0.2271,0.2252,0.2303,0.2308,0.2312,0.2322,0.2327,0.2263,0.2262,0.2262,0.2262,0,0.2076,0.2089,0.2099,0.2123,0.2137,0.2148,0.2168,0.2182,0.2189,0.2197,0.2231,0.2243,0.2263,0.2276,0.2274,0.2314,0.2308,0.2307,0.2288,0.2319,0.2328,0.2333,0.2265,0.2264,0.2264,0.2263,0,0,0.205,0.2095,0.2095,0.2104,0.2139,0.2145,0.2174,0.22,0.2214,0.2233,0.2256,0.2287,0.2298,0.2308,0.2319,0.2338,0.2375,0.2333,0.2334,0.2337,0.2422,0.2413,0.2417,0.2384,0.2385,0.2386,0.2416,0,0.2045,0.2067,0.2095,0.2107,0.2119,0.2151,0.217,0.2199,0.2225,0.225,0.2284,0.2308,0.2309,0.2324,0.2347,0.2373,0.2389,0.2365,0.2396,0.2396,0.2379,0.2423,0.237,0.2393,0.2421,0.2422,0.2423,0,0.2036,0.2055,0.2071,0.2101,0.2109,0.2117,0.2158,0.2178,0.2231,0.2256,0.23,0.2324,0.2369,0.2358,0.2415,0.24,0.241,0.2423,0.2424,0.2408,0.2397,0.2367,0.2401,0.2368,0.243,0.243,0.2429,0,0.2,0.2032,0.2042,0.2052,0.2091,0.2105,0.2124,0.2178,0.2204,0.2264,0.2291,0.2347,0.2375,0.2408,0.2443,0.2432,0.2495,0.2484,0.2482,0.2481,0.2437,0.243,0.2436,0.2514,0.2514,0.2514,0.2514,0,0.1982,0.1983,0.2021,0.2024,0.2031,0.2072,0.2094,0.2129,0.2189,0.222,0.2284,0.2327,0.2389,0.2437,0.2456,0.2492,0.251,0.2491,0.2495,0.2444,0.2438,0.2408,0.2382,0.2515,0.2515,0.2515,0.2514,0,0.1938,0.1966,0.197,0.2005,0.2015,0.2017,0.2069,0.2087,0.2151,0.2198,0.222,0.2322,0.2394,0.2448,0.2509,0.2508,0.2479,0.2543,0.2475,0.247,0.2431,0.2408,0.2278,0.2212,0.2547,0.2548,0.2548,0,0.1917,0.1919,0.1944,0.1943,0.1956,0.1974,0.1988,0.2057,0.2083,0.2194,0.2208,0.2312,0.2374,0.2471,0.2509,0.255,0.2476,0.2506,0.2476,0.243,0.2408,0.2273,0.2217,0.2426,0.2425,0.2424,0.2424,0,0.1875,0.1883,0.189,0.1891,0.1898,0.1907,0.1933,0.1956,0.2036,0.2089,0.2168,0.2237,0.2358,0.2409,0.2478,0.2493,0.2396,0.249,0.2464,0.2333,0.2164,0.2102,0.2396,0.2417,0.2417,0.2418,0.2418,0.2418,0.1834,0.1826,0.1836,0.1826,0.1833,0.1826,0.1815,0.1862,0.1904,0.1965,0.2082,0.2161,0.2306,0.2416,0.2409,0.2403,0.2344,0.2363,0.2345,0.2217,0.2128,0.2403,0.2416,0.2417,0.2417,0.2418,0.2418,0,0.1774,0.1773,0.1768,0.1751,0.1724,0.1752,0.1761,0.1744,0.1763,0.1883,0.195,0.211,0.2184,0.228,0.2353,0.2289,0.2144,0.223,0.2042,0.2001,0.2284,0.2258,0.2211,0.2211,0.2211,0.2211,0.2211,0.2211,0.1744,0.1716,0.171,0.1644,0.1628,0.1575,0.1563,0.1563,0.1629,0.1715,0.1818,0.1923,0.2137,0.2252,0.2247,0.2192,0.2027,0.1918,0.189,0.2134,0.2144,0.2155,0.2126,0.2052,0.2052,0.1526,0.1522,0.1519]},{"header":{"parameterUnit":"m.s-1","parameterCategory":2,"la1":30.2991,"la2":30.254,"lo1":-89.0895,"lo2":-89.0444,"dy":0.0017,"dx":0.0017,"nx":28,"ny":28,"refTime":"2024-05-31T09:00:00:Z","depth":"0","parameterNumber":3,"parameterNumberName":"V-component_of_CURRENTS"},"data":[0,0,0,0,0,0,0,0,0,0,0,0,0,0,0,0,0,0,0,0,0,0,0,0,0,0,0,0,0,0,0,0,0,0,0,0,0,0,0,0,0,0,0,0,0,0,0,0,0,0,0,0,0,0,0,0,0,0,0.0227,0.0227,0,0.0175,0.0174,0.0173,0.0139,0.0138,0.0138,0.0138,0.007,0.0069,0.0067,0,0,0,0,0,0,0,0,0,0,0,0,0,0.0256,0.0256,0.0227,0.0227,0.0226,0.0175,0.0174,0.0173,0.0139,0.0138,0.0138,0.0138,0.0071,0.0069,0.0067,0,0,0,0,0,0,0,0,0,0,0,0,0,0.0227,0.0256,0.0227,0.0203,0.02,0.0175,0.0174,0.0173,0.0139,0.0138,0.0138,0.0138,0.0071,0.0069,0.0067,0.0057,0,0,0.0059,0.0058,0,0,0,0,0,0,0,0,0.0229,0.0226,0.0207,0.0205,0.0202,0.0163,0.0159,0.0134,0.0139,0.0161,0.0138,0.0138,0.01,0.0096,0.0086,0.0054,0.0051,0.0059,0.0057,0.0056,0.0056,0,0,0,0,0,0,0,0.0231,0.0228,0.0206,0.0207,0.0203,0.018,0.0176,0.0154,0.0132,0.0159,0.0157,0.0152,0.0099,0.0088,0.0084,0.005,0.0059,0.0057,0.0055,0.0054,0.0011,0.0011,0,0,0,0,0,0,0.0241,0.023,0.0207,0.0204,0.0215,0.018,0.0176,0.0175,0.0133,0.0126,0.0152,0.0151,0.0093,0.0087,0.0081,0.008,0.0056,0.0054,0.0053,0.0011,0.0011,0.0011,0,0,0,0,0,0,0.0242,0.024,0.021,0.0216,0.0211,0.0181,0.018,0.0175,0.0165,0.0128,0.0121,0.0149,0.0092,0.0085,0.0067,0.0077,0.0053,0.0051,0.001,0.0011,0.0011,0.0069,0,0,0,0,0,0,0.0243,0.0241,0.0244,0.0217,0.0211,0.02,0.018,0.0174,0.0163,0.016,0.0123,0.0116,0.0091,0.0071,0.0065,0.0073,0.0049,0.001,0.001,0.0011,0.0067,0.0072,0.0076,0,0,0,0,0,0.0245,0.0252,0.0244,0.0241,0.0216,0.0201,0.0196,0.0172,0.0163,0.0162,0.0138,0.0117,0.007,0.0069,0.0062,0.007,0.0009,0.001,0.0011,0.0065,0.0071,0.0076,0,0,0,0,0,0,0.0264,0.0249,0.0239,0.0241,0.0225,0.0195,0.0193,0.0177,0.0157,0.0156,0.012,0.0112,0.0099,0.0076,0.0076,0.0058,0.0037,0.0036,0.008,0.0085,0.009,0.0107,0.0047,0,0,0,0,0,0.0271,0.0275,0.0252,0.0254,0.0249,0.0222,0.0213,0.0199,0.0178,0.0169,0.0142,0.0116,0.0096,0.0085,0.0061,0.0053,0.0033,0.0053,0.0057,0.0061,0.0069,0.0051,0.0055,0.0014,0.0014,0.0014,0,0,0.0278,0.0271,0.0272,0.0258,0.0244,0.0245,0.0216,0.0209,0.0209,0.0165,0.0158,0.0129,0.0096,0.0086,0.0078,0.0069,0.0061,0.0062,0.0066,0.0072,0.0052,0.0056,0.006,0.0014,0.0014,0.0014,0,0,0.03,0.029,0.0301,0.0292,0.0278,0.0264,0.0265,0.024,0.023,0.0217,0.0188,0.017,0.0134,0.0117,0.0102,0.0117,0.0084,0.0106,0.0144,0.0126,0.013,0.0132,0.0111,0.0112,0.0111,0.0111,0.0111,0,0.0308,0.0319,0.0301,0.0309,0.0307,0.0277,0.0288,0.0274,0.0246,0.0243,0.0223,0.018,0.0151,0.0144,0.0148,0.0129,0.011,0.0128,0.0133,0.0135,0.0137,0.0115,0.0114,0.0114,0.0113,0.0113,0.0113,0,0.0337,0.0344,0.035,0.0353,0.0349,0.0352,0.0335,0.0331,0.0313,0.0295,0.0281,0.024,0.0217,0.0203,0.0179,0.018,0.0159,0.014,0.0123,0.0145,0.012,0.0118,0.0118,0.0117,0.0116,0.0115,0,0,0.0357,0.0369,0.0371,0.0384,0.0374,0.0377,0.0383,0.0379,0.0388,0.0354,0.036,0.032,0.0295,0.0277,0.0244,0.0228,0.0221,0.0194,0.0192,0.018,0.0179,0.0163,0.016,0.0202,0.0202,0.0202,0.0155,0,0.0383,0.0416,0.041,0.044,0.0455,0.0437,0.0446,0.044,0.0424,0.0421,0.0382,0.0368,0.0324,0.0314,0.0292,0.024,0.0221,0.0235,0.0154,0.0151,0.014,0.0159,0.0186,0.0147,0.0154,0.0154,0.0153,0,0.0412,0.0432,0.0467,0.0493,0.0498,0.0507,0.0524,0.053,0.0517,0.0504,0.0484,0.0443,0.0416,0.0373,0.0302,0.0313,0.0253,0.0209,0.0206,0.0172,0.0134,0.0125,0.0144,0.0067,0.0151,0.0151,0.0151,0,0.0443,0.0472,0.0506,0.0511,0.0531,0.0545,0.0557,0.0555,0.0572,0.0559,0.0562,0.0513,0.0496,0.0419,0.032,0.0311,0.0237,0.0212,0.0142,0.0139,0.0137,0.0135,0.0079,0.0163,0.0163,0.0163,0.0163,0,0.0473,0.05,0.0524,0.0542,0.0585,0.0586,0.0627,0.0628,0.0641,0.0672,0.0609,0.0619,0.0507,0.0444,0.0346,0.0244,0.0255,0.0155,0.0131,0.0157,0.0157,0.0069,0.0004,0.0161,0.0161,0.0162,0.0162,0,0.0499,0.0513,0.0555,0.0587,0.06,0.0633,0.0678,0.0709,0.0711,0.0751,0.0749,0.0702,0.0628,0.0503,0.0382,0.0287,0.013,0.0138,0.0175,0.0156,0.0023,-0.004,-0.0135,-0.0184,0.0062,0.0061,0.006,0,0.0515,0.0539,0.0589,0.0619,0.0634,0.0683,0.0718,0.0742,0.0782,0.0807,0.0832,0.0772,0.075,0.0561,0.0383,0.0213,0.0115,0.0113,0.0101,0.0027,-0.0062,-0.0097,-0.0134,0.0118,0.0118,0.0118,0.0118,0,0.0544,0.0559,0.0595,0.0656,0.07,0.0759,0.0814,0.0856,0.0895,0.093,0.0968,0.0954,0.0788,0.0643,0.0402,0.0271,0.0059,0.0107,0.0024,-0.0024,-0.006,-0.0122,0.013,0.0118,0.0118,0.0118,0.0118,0.0118,0.0562,0.0591,0.0636,0.0693,0.0751,0.0823,0.0876,0.0942,0.1017,0.1088,0.1079,0.1108,0.0901,0.0587,0.0383,0.007,0.0049,-0.001,-0.008,-0.0109,-0.0152,0.0099,0.0061,0.0061,0.006,0.006,0.006,0,0.0581,0.0615,0.067,0.074,0.0804,0.0832,0.0931,0.0993,0.1087,0.1188,0.1234,0.1209,0.0915,0.0617,0.0185,-0.0054,-0.0145,-0.0186,-0.0223,-0.0254,-0.0026,-0.0017,-0.0066,-0.0066,-0.0066,-0.0066,-0.0066,-0.0066,0.0593,0.0641,0.0668,0.0765,0.0819,0.0908,0.0967,0.1064,0.1165,0.1311,0.1399,0.1449,0.1292,0.0464,-0.0082,-0.0234,-0.0387,-0.0424,-0.0523,-0.0356,-0.0344,-0.0333,-0.0337,-0.0452,-0.0453,-0.0691,-0.0693,-0.0695]}],[{"header":{"parameterUnit":"m.s-1","parameterCategory":2,"la1":30.2991,"la2":30.254,"lo1":-89.0895,"lo2":-89.0444,"dy":0.0017,"dx":0.0017,"nx":28,"ny":28,"refTime":"2024-05-31T09:00:00:Z","depth":"2","parameterNumber":2,"parameterNumberName":"U-component_of_CURRENTS"},"data":[0,0,0,0,0,0,0,0,0,0,0,0,0,0,0,0,0,0,0,0,0,0,0,0,0,0,0,0,0,0,0,0,0,0,0,0,0,0,0,0,0,0,0,0,0,0,0,0,0,0,0,0,0,0,0,0,0,0,0.2002,0.2003,0,0.201,0.201,0.201,0.2007,0.2007,0.2007,0.2007,0.2023,0.2023,0.2024,0,0,0,0,0,0,0,0,0,0,0,0,0,0.1973,0.1974,0.2002,0.2003,0.2003,0.201,0.201,0.201,0.2007,0.2007,0.2007,0.2007,0.2023,0.2023,0.2024,0,0,0,0,0,0,0,0,0,0,0,0,0,0.1983,0.1974,0.2002,0.2003,0.2003,0.201,0.201,0.201,0.2007,0.2007,0.2007,0.2007,0.2023,0.2023,0.2024,0.203,0,0,0.2026,0.2027,0,0,0,0,0,0,0,0,0.1982,0.1984,0.2003,0.2003,0.2003,0.2009,0.2006,0.2018,0.2007,0.2004,0.2007,0.2007,0.202,0.2021,0.202,0.2031,0.2032,0.2026,0.2027,0.2027,0.2027,0,0,0,0,0,0,0,0.1982,0.1983,0.2004,0.2003,0.2003,0.1999,0.2001,0.2008,0.2012,0.2004,0.2005,0.2008,0.202,0.202,0.2021,0.2032,0.2026,0.2027,0.2027,0.2028,0.2092,0.2093,0,0,0,0,0,0,0.1984,0.1983,0.2004,0.2004,0.1994,0.2,0.2001,0.2006,0.2011,0.2012,0.2008,0.2008,0.2019,0.202,0.2021,0.2058,0.2027,0.2028,0.2028,0.2091,0.2092,0.2093,0,0,0,0,0,0,0.1984,0.1986,0.2004,0.1995,0.1997,0.2001,0.2006,0.2006,0.2013,0.2014,0.2015,0.2016,0.2019,0.202,0.2035,0.2057,0.2028,0.2029,0.2089,0.2091,0.2093,0.2113,0,0,0,0,0,0,0.1983,0.1986,0.1991,0.1995,0.1998,0.2015,0.2006,0.2007,0.2016,0.2016,0.2021,0.2022,0.2019,0.2034,0.2036,0.2058,0.2029,0.2087,0.209,0.2092,0.211,0.2115,0.2119,0,0,0,0,0,0.1982,0.1988,0.1992,0.1994,0.2005,0.2015,0.2016,0.2018,0.2016,0.2023,0.2026,0.2022,0.2051,0.2035,0.2037,0.206,0.2086,0.2089,0.2092,0.2108,0.2114,0.2119,0,0,0,0,0,0,0.1974,0.1989,0.1992,0.2002,0.2012,0.2015,0.2023,0.2024,0.2031,0.2034,0.203,0.2032,0.2057,0.2057,0.204,0.2088,0.2072,0.2075,0.2084,0.2089,0.2093,0.2085,0.203,0,0,0,0,0,0.1977,0.1988,0.2,0.2008,0.2016,0.2022,0.2027,0.203,0.2036,0.2039,0.2043,0.2054,0.207,0.2077,0.2089,0.2109,0.211,0.2129,0.2133,0.2136,0.2133,0.2158,0.2164,0.2103,0.2103,0.2103,0,0,0.1974,0.1986,0.199,0.2008,0.2017,0.2026,0.2025,0.2039,0.2046,0.2041,0.2055,0.2068,0.2079,0.2103,0.2115,0.2105,0.2156,0.214,0.2143,0.2138,0.2162,0.2167,0.2173,0.2105,0.2104,0.2104,0,0,0.1975,0.1989,0.2,0.2012,0.2031,0.2036,0.2043,0.2054,0.2062,0.2077,0.2082,0.2105,0.2122,0.2136,0.2145,0.2181,0.2178,0.2194,0.2206,0.2231,0.2235,0.224,0.2248,0.2252,0.2194,0.2195,0.2195,0,0.1972,0.1985,0.2004,0.2018,0.2028,0.2041,0.2052,0.2062,0.2076,0.209,0.2086,0.2128,0.2137,0.2171,0.2184,0.219,0.2197,0.2182,0.2235,0.2239,0.2243,0.225,0.2255,0.2196,0.2196,0.2196,0.2195,0,0.1978,0.1991,0.2001,0.2022,0.2038,0.205,0.207,0.2088,0.21,0.211,0.2149,0.2162,0.2187,0.2202,0.22,0.2242,0.2236,0.2237,0.2217,0.225,0.2256,0.2261,0.2198,0.2197,0.2197,0.2196,0,0,0.1958,0.1997,0.1998,0.2008,0.2042,0.2049,0.208,0.2107,0.2124,0.2149,0.2174,0.2209,0.2222,0.2233,0.2245,0.2264,0.2299,0.2262,0.2263,0.2261,0.2344,0.2327,0.233,0.231,0.2311,0.2312,0.2336,0,0.1955,0.1976,0.2,0.2015,0.2027,0.2059,0.208,0.211,0.214,0.2168,0.2202,0.223,0.2232,0.225,0.2272,0.2297,0.2313,0.2291,0.232,0.2321,0.2294,0.2336,0.2162,0.2169,0.2341,0.2342,0.2342,0,0.1948,0.1964,0.1982,0.2011,0.202,0.2031,0.2075,0.2097,0.2151,0.2177,0.2222,0.2248,0.2293,0.2284,0.2337,0.2325,0.2334,0.2345,0.2347,0.2324,0.2312,0.2165,0.2171,0.235,0.2349,0.2349,0.2348,0,0.1916,0.1946,0.1958,0.1968,0.2006,0.2024,0.2046,0.21,0.2128,0.2189,0.2217,0.2272,0.2302,0.2333,0.2366,0.2356,0.2413,0.2403,0.2391,0.2389,0.2244,0.2228,0.243,0.243,0.243,0.243,0.243,0,0.19,0.1903,0.194,0.1944,0.1956,0.1997,0.2023,0.206,0.212,0.215,0.2215,0.2256,0.2317,0.236,0.2378,0.2405,0.2427,0.2399,0.2401,0.2247,0.2232,0.2389,0.2384,0.2431,0.2431,0.2431,0.243,0,0.1861,0.1886,0.1893,0.193,0.1941,0.1949,0.2004,0.2022,0.2087,0.2134,0.2158,0.2253,0.232,0.2369,0.2424,0.2419,0.2447,0.2444,0.2256,0.2236,0.2399,0.2395,0.2436,0.2435,0.2435,0.2435,0.2435,0,0.1841,0.1843,0.1871,0.1873,0.1888,0.1912,0.1928,0.1997,0.2023,0.213,0.2144,0.2242,0.2293,0.2376,0.2394,0.2422,0.2455,0.2265,0.222,0.2405,0.2403,0.2399,0.2395,0.2028,0.2025,0.2022,0.202,0,0.1802,0.1812,0.182,0.1825,0.1836,0.1846,0.1877,0.1897,0.1977,0.2026,0.2098,0.2156,0.2251,0.2224,0.2274,0.2265,0.2251,0.221,0.245,0.2067,0.2027,0.2023,0.2031,0.1994,0.1997,0.1999,0.2,0.2001,0.1766,0.1759,0.177,0.1765,0.1775,0.1769,0.1758,0.1803,0.184,0.1886,0.1994,0.2021,0.2073,0.2082,0.2033,0.2003,0.2162,0.2062,0.2068,0.2078,0.2039,0.2003,0.1957,0.1959,0.1961,0.1963,0.1964,0,0.1711,0.171,0.1708,0.1694,0.1668,0.17,0.1708,0.1683,0.1694,0.1777,0.1824,0.1723,0.1728,0.1772,0.1701,0.1719,0.1667,0.1642,0.1553,0.1583,0.1608,0.1541,0.1328,0.1326,0.1324,0.1321,0,0,0.1683,0.1656,0.165,0.1588,0.1578,0.1526,0.1513,0.1497,0.1531,0.1525,0.1536,0.1671,0.1752,0.1521,0.1503,0.1403,0.1473,0.1347,0.1868,0.1796,0.1818,0.1875,0.181,0,0,0,0,0]},{"header":{"parameterUnit":"m.s-1","parameterCategory":2,"la1":30.2991,"la2":30.254,"lo1":-89.0895,"lo2":-89.0444,"dy":0.0017,"dx":0.0017,"nx":28,"ny":28,"refTime":"2024-05-31T09:00:00:Z","depth":"2","parameterNumber":3,"parameterNumberName":"V-component_of_CURRENTS"},"data":[0,0,0,0,0,0,0,0,0,0,0,0,0,0,0,0,0,0,0,0,0,0,0,0,0,0,0,0,0,0,0,0,0,0,0,0,0,0,0,0,0,0,0,0,0,0,0,0,0,0,0,0,0,0,0,0,0,0,0.0096,0.0095,0,0.0049,0.0049,0.0048,0.0019,0.0019,0.0018,0.0018,-0.0047,-0.0048,-0.005,0,0,0,0,0,0,0,0,0,0,0,0,0,0.0129,0.0129,0.0096,0.0095,0.0095,0.005,0.0049,0.0048,0.0019,0.0019,0.0018,0.0018,-0.0046,-0.0048,-0.005,0,0,0,0,0,0,0,0,0,0,0,0,0,0.0101,0.0129,0.0096,0.0075,0.0073,0.005,0.0049,0.0048,0.0019,0.0019,0.0018,0.0018,-0.0045,-0.0048,-0.005,-0.0061,0,0,-0.0057,-0.0059,0,0,0,0,0,0,0,0,0.0103,0.01,0.0079,0.0076,0.0074,0.004,0.0037,0.0011,0.0019,0.0039,0.0018,0.0018,-0.0019,-0.0023,-0.0032,-0.0064,-0.0067,-0.0058,-0.0059,-0.006,-0.0061,0,0,0,0,0,0,0,0.0105,0.0102,0.0077,0.0078,0.0075,0.0058,0.0054,0.0032,0.0011,0.0037,0.0035,0.0031,-0.002,-0.003,-0.0034,-0.0068,-0.0058,-0.006,-0.0061,-0.0062,-0.0105,-0.0105,0,0,0,0,0,0,0.0114,0.0104,0.0078,0.0075,0.0089,0.0058,0.0053,0.0051,0.0011,0.0005,0.0031,0.0029,-0.0026,-0.0031,-0.0036,-0.0037,-0.006,-0.0062,-0.0064,-0.0105,-0.0105,-0.0105,0,0,0,0,0,0,0.0115,0.0112,0.008,0.0089,0.0084,0.0058,0.0055,0.005,0.0043,0.0007,0.0001,0.003,-0.0026,-0.0033,-0.005,-0.004,-0.0064,-0.0066,-0.0106,-0.0105,-0.0105,-0.0047,0,0,0,0,0,0,0.0116,0.0113,0.0116,0.009,0.0084,0.0073,0.0055,0.0049,0.0041,0.0039,0.0004,-0.0003,-0.0027,-0.0046,-0.0052,-0.0044,-0.0068,-0.0106,-0.0106,-0.0105,-0.005,-0.0045,-0.0041,0,0,0,0,0,0.0117,0.0123,0.0116,0.0113,0.0088,0.0073,0.0069,0.0049,0.0041,0.0042,0.0019,-0.0001,-0.0047,-0.0047,-0.0055,-0.0047,-0.0106,-0.0106,-0.0105,-0.0051,-0.0046,-0.0041,0,0,0,0,0,0,0.0139,0.012,0.0112,0.0112,0.0097,0.0069,0.0068,0.0054,0.0036,0.0037,0.0002,-0.0006,-0.0018,-0.0041,-0.0041,-0.0058,-0.008,-0.008,-0.0036,-0.0031,-0.0027,-0.0012,-0.007,0,0,0,0,0,0.0146,0.0146,0.0124,0.0125,0.012,0.0096,0.0088,0.0076,0.0056,0.0048,0.0024,-0.0001,-0.0022,-0.0032,-0.0055,-0.0064,-0.0085,-0.0064,-0.006,-0.0056,-0.0048,-0.0069,-0.0066,-0.0102,-0.0102,-0.0102,0,0,0.0154,0.0144,0.0144,0.013,0.0117,0.0117,0.0091,0.0086,0.0086,0.0044,0.0039,0.0012,-0.0021,-0.0031,-0.0038,-0.0048,-0.0057,-0.0055,-0.0051,-0.0046,-0.0068,-0.0065,-0.0061,-0.0102,-0.0102,-0.0102,0,0,0.0174,0.0164,0.0173,0.0164,0.0151,0.0137,0.0139,0.0116,0.0108,0.0097,0.0069,0.0052,0.0018,-0.0,-0.0015,-0.0001,-0.0034,-0.0011,0.0025,0.0005,0.0008,0.0011,-0.0011,-0.0011,-0.0007,-0.0007,-0.0007,0,0.0185,0.0192,0.0173,0.018,0.0178,0.0151,0.0161,0.0148,0.0124,0.012,0.0104,0.0062,0.0034,0.0024,0.0029,0.001,-0.0009,0.001,0.0012,0.0014,0.0015,-0.0008,-0.0009,-0.0004,-0.0004,-0.0004,-0.0005,0,0.0211,0.0217,0.0222,0.0223,0.022,0.0223,0.0206,0.0204,0.0189,0.0172,0.0158,0.0119,0.0096,0.0083,0.0059,0.0058,0.0038,0.002,0.0002,0.0023,-0.0003,-0.0005,0.0,-0.0001,-0.0002,-0.0002,0,0,0.0232,0.0239,0.0242,0.0254,0.0244,0.0247,0.0253,0.0248,0.0257,0.0227,0.0231,0.0193,0.017,0.0153,0.012,0.0102,0.0094,0.0071,0.0068,0.0055,0.0048,0.0037,0.0033,0.0075,0.0075,0.0075,0.0026,0,0.0257,0.0286,0.0279,0.0308,0.0322,0.0305,0.0313,0.0307,0.0292,0.0289,0.025,0.0237,0.0197,0.0189,0.0165,0.0112,0.0092,0.0109,0.0024,0.0022,0.0015,0.0032,0.0046,0.0004,0.0024,0.0024,0.0023,0,0.0284,0.0302,0.0334,0.0358,0.0362,0.0373,0.0388,0.0394,0.0379,0.0368,0.0348,0.031,0.0282,0.0242,0.0169,0.0181,0.0123,0.0078,0.0074,0.0044,0.0008,-0.0015,-0.0001,0.002,0.002,0.002,0.0021,0,0.0315,0.0342,0.0372,0.0378,0.0396,0.041,0.0422,0.0418,0.0434,0.042,0.0425,0.0375,0.0359,0.0282,0.0188,0.0178,0.0103,0.0075,0.0008,0.0006,-0.0008,-0.0011,0.0023,0.0023,0.0023,0.0023,0.0023,0,0.0343,0.037,0.0391,0.0409,0.0451,0.0451,0.049,0.0492,0.0502,0.053,0.0471,0.0478,0.0368,0.0308,0.0212,0.0111,0.012,0.0021,-0.0003,0.0012,0.0011,0.0003,0.0002,0.0021,0.0022,0.0022,0.0022,0,0.037,0.0382,0.0422,0.0452,0.0466,0.0498,0.0542,0.057,0.0573,0.0609,0.0609,0.0559,0.0485,0.0366,0.0244,0.0152,0.0048,0.0007,0.0032,0.0012,-0.0044,-0.0042,-0.0071,-0.0072,-0.0073,-0.0073,-0.0074,0,0.0385,0.0408,0.0456,0.0486,0.0501,0.0549,0.0582,0.0605,0.0641,0.0663,0.0685,0.0626,0.0599,0.0414,0.0243,0.0078,0.0049,-0.0029,-0.0046,-0.0031,-0.0052,-0.0049,-0.0046,-0.0047,-0.0047,-0.0047,-0.0047,0,0.0413,0.0428,0.0462,0.0522,0.0565,0.0621,0.0674,0.0713,0.0748,0.078,0.0812,0.0794,0.0629,0.0472,0.0242,0.0122,-0.0002,-0.0037,-0.0026,-0.0021,-0.0011,-0.003,-0.0028,-0.0049,-0.0048,-0.0048,-0.0048,-0.0048,0.0432,0.0459,0.0501,0.0558,0.0614,0.0682,0.0733,0.0793,0.086,0.0917,0.0904,0.0891,0.0709,0.0427,0.0217,-0.0008,0.0003,-0.0083,-0.0081,-0.008,-0.0064,-0.0055,-0.0098,-0.0098,-0.0099,-0.0099,-0.0099,0,0.0451,0.0483,0.0535,0.0603,0.0663,0.0693,0.0786,0.0836,0.092,0.0985,0.1017,0.0848,0.0676,0.046,0.0137,-0.0058,-0.0079,-0.0132,-0.011,-0.0107,-0.0105,-0.009,-0.0131,-0.0132,-0.0133,-0.0133,0,0,0.0463,0.0507,0.053,0.0624,0.0679,0.0764,0.082,0.0894,0.0962,0.1017,0.1028,0.1021,0.0767,0.0525,0.0256,0.0067,0.0021,0.002,0.0068,0.0129,0.0134,-0.0055,-0.0026,0,0,0,0,0]}],[{"header":{"parameterUnit":"m.s-1","parameterCategory":2,"la1":30.2991,"la2":30.254,"lo1":-89.0895,"lo2":-89.0444,"dy":0.0017,"dx":0.0017,"nx":28,"ny":28,"refTime":"2024-05-31T09:00:00:Z","depth":"4","parameterNumber":2,"parameterNumberName":"U-component_of_CURRENTS"},"data":[0,0,0,0,0,0,0,0,0,0,0,0,0,0,0,0,0,0,0,0,0,0,0,0,0,0,0,0,0,0,0,0,0,0,0,0,0,0,0,0,0,0,0,0,0,0,0,0,0,0,0,0,0,0,0,0,0,0,0.1207,0.1207,0,0.1267,0.1267,0.1268,0.1317,0.1318,0.1319,0.1319,0.1357,0.1358,0.1358,0,0,0,0,0,0,0,0,0,0,0,0,0,0.1174,0.1174,0.1207,0.1207,0.1208,0.1267,0.1267,0.1268,0.1317,0.1318,0.1319,0.132,0.1357,0.1358,0.1358,0,0,0,0,0,0,0,0,0,0,0,0,0,0.1205,0.1174,0.1206,0.1241,0.1245,0.1267,0.1267,0.1268,0.1317,0.1318,0.1319,0.132,0.1357,0.1358,0.1358,0.1342,0,0,0.136,0.136,0,0,0,0,0,0,0,0,0.1203,0.1206,0.1235,0.1239,0.1243,0.1287,0.127,0.1292,0.1317,0.1288,0.1319,0.1321,0.1332,0.1335,0.1342,0.1344,0.1345,0.136,0.1361,0.1361,0.1361,0,0,0,0,0,0,0,0.1201,0.1204,0.1229,0.1236,0.1241,0.1268,0.1272,0.1275,0.1302,0.1291,0.1295,0.1304,0.1334,0.1341,0.1343,0.1346,0.136,0.1361,0.1361,0.1361,0.1419,0.142,0,0,0,0,0,0,0.1193,0.1201,0.1227,0.1231,0.1227,0.1267,0.1273,0.1271,0.1303,0.1309,0.1303,0.1306,0.134,0.1342,0.1345,0.1405,0.1361,0.1361,0.1362,0.1418,0.1419,0.142,0,0,0,0,0,0,0.1192,0.1194,0.1224,0.122,0.1225,0.1267,0.1264,0.1271,0.1309,0.1312,0.1318,0.1337,0.1341,0.1344,0.1378,0.1404,0.1362,0.1362,0.1416,0.1418,0.142,0.1476,0,0,0,0,0,0,0.119,0.1193,0.1204,0.1218,0.1226,0.1257,0.1263,0.1272,0.1312,0.1317,0.1342,0.1346,0.1342,0.1377,0.1379,0.1404,0.1363,0.1415,0.1417,0.1419,0.1473,0.148,0.1485,0,0,0,0,0,0.1189,0.1194,0.1203,0.1208,0.1233,0.1258,0.1264,0.1296,0.1313,0.1333,0.1355,0.1346,0.1392,0.1379,0.138,0.1406,0.1414,0.1416,0.1419,0.147,0.1478,0.1485,0,0,0,0,0,0,0.1193,0.1201,0.1211,0.1221,0.1248,0.1267,0.1292,0.1311,0.1345,0.1359,0.1361,0.1366,0.1405,0.1397,0.1383,0.143,0.1401,0.1404,0.1439,0.1447,0.1453,0.1454,0.1363,0,0,0,0,0,0.1195,0.1201,0.1218,0.1232,0.1245,0.1274,0.1294,0.1316,0.1341,0.1359,0.1377,0.1395,0.1411,0.1424,0.1434,0.1458,0.1454,0.1476,0.1483,0.1488,0.149,0.1511,0.152,0.1429,0.1429,0.1429,0,0,0.1204,0.1209,0.1215,0.1235,0.1258,0.1279,0.129,0.1328,0.1355,0.1355,0.1405,0.142,0.1423,0.1455,0.1471,0.1456,0.1513,0.1491,0.1496,0.1495,0.1515,0.1524,0.1532,0.1431,0.143,0.143,0,0,0.1214,0.1227,0.1234,0.1255,0.1292,0.1306,0.1323,0.1359,0.1388,0.1429,0.1439,0.1473,0.1497,0.1507,0.1512,0.1557,0.1547,0.1564,0.1597,0.1619,0.1626,0.1633,0.1644,0.1651,0.1567,0.1567,0.1567,0,0.1231,0.1233,0.1246,0.1262,0.1286,0.1319,0.1344,0.1371,0.1419,0.1445,0.1455,0.1511,0.1519,0.1552,0.1574,0.1572,0.1581,0.1568,0.1627,0.1633,0.1639,0.1649,0.1656,0.157,0.157,0.1569,0.1569,0,0.1236,0.1255,0.1266,0.1289,0.1318,0.1348,0.1382,0.1424,0.1463,0.1489,0.1548,0.1567,0.16,0.161,0.1608,0.1655,0.1647,0.1634,0.1607,0.1652,0.1659,0.1666,0.1574,0.1573,0.1572,0.1571,0,0,0.1231,0.1263,0.1271,0.1289,0.1338,0.1358,0.1411,0.1459,0.1498,0.155,0.1598,0.1639,0.1662,0.1669,0.1677,0.1698,0.175,0.1691,0.1691,0.1702,0.18,0.1696,0.1692,0.1754,0.1755,0.1756,0.1791,0,0.1238,0.1262,0.1283,0.1325,0.1342,0.1393,0.1433,0.1487,0.1538,0.1591,0.1628,0.1675,0.1679,0.1708,0.1733,0.1748,0.177,0.1742,0.1756,0.1756,0.1657,0.1697,0.1761,0.1795,0.1797,0.1798,0.1799,0,0.1233,0.125,0.1286,0.1336,0.1352,0.1389,0.1467,0.1509,0.1585,0.1627,0.1687,0.1717,0.1772,0.1762,0.1817,0.1804,0.1811,0.1814,0.1815,0.17,0.1663,0.174,0.181,0.1809,0.1808,0.1807,0.1807,0,0.1205,0.1253,0.1281,0.13,0.1362,0.1404,0.1449,0.1528,0.1572,0.166,0.17,0.1764,0.1804,0.1833,0.1858,0.1849,0.1902,0.1882,0.1791,0.1784,0.1843,0.1835,0.1913,0.1913,0.1913,0.1913,0.1913,0,0.1186,0.1213,0.1275,0.129,0.1338,0.1395,0.1461,0.1517,0.1599,0.1643,0.172,0.1759,0.1827,0.1866,0.1877,0.1855,0.1921,0.1801,0.1787,0.1866,0.1861,0.1847,0.1839,0.1914,0.1914,0.1913,0.1913,0,0.1145,0.1186,0.1221,0.1294,0.1325,0.1363,0.1461,0.1498,0.1588,0.1651,0.1683,0.1774,0.1825,0.1872,0.1915,0.1864,0.1861,0.1834,0.1922,0.1912,0.1724,0.1719,0.1732,0.1729,0.1726,0.1723,0.1721,0,0.1121,0.1135,0.1214,0.124,0.1281,0.1348,0.1388,0.1486,0.1523,0.1644,0.1657,0.1748,0.1796,0.1768,0.1831,0.1839,0.1817,0.1795,0.1751,0.1721,0.1707,0.1706,0.1705,0.1717,0.1716,0.1715,0.1715,0,0.1075,0.1114,0.1143,0.1194,0.1244,0.1285,0.1353,0.1369,0.1472,0.1566,0.1591,0.1619,0.1668,0.17,0.1717,0.1721,0.1798,0.1764,0.177,0.1729,0.1703,0.1692,0.1693,0.1705,0.1706,0.1707,0.1708,0,0.1046,0.1052,0.1097,0.1133,0.1188,0.1201,0.1247,0.1283,0.133,0.1455,0.1465,0.1559,0.1649,0.164,0.1662,0.1654,0.1628,0.156,0.1576,0.1588,0.1525,0.1471,0.1392,0,0,0,0,0,0.1008,0.1004,0.103,0.1058,0.1106,0.1139,0.121,0.1254,0.1353,0.133,0.1391,0.1432,0.1462,0.1517,0.1482,0.161,0.164,0.1561,0.1572,0.165,0.1661,0.1602,0,0,0,0,0,0,0.0982,0.1003,0.1001,0.0987,0.0994,0.1035,0.1075,0.1141,0.1132,0.1238,0.1263,0.1345,0.14,0.147,0.1456,0.1472,0.1448,0.1626,0.1622,0.1643,0.1654,0.1663,0.1606,0,0,0,0,0]},{"header":{"parameterUnit":"m.s-1","parameterCategory":2,"la1":30.2991,"la2":30.254,"lo1":-89.0895,"lo2":-89.0444,"dy":0.0017,"dx":0.0017,"nx":28,"ny":28,"refTime":"2024-05-31T09:00:00:Z","depth":"4","parameterNumber":3,"parameterNumberName":"V-component_of_CURRENTS"},"data":[0,0,0,0,0,0,0,0,0,0,0,0,0,0,0,0,0,0,0,0,0,0,0,0,0,0,0,0,0,0,0,0,0,0,0,0,0,0,0,0,0,0,0,0,0,0,0,0,0,0,0,0,0,0,0,0,0,0,0.0016,0.0016,0,-0.0013,-0.0013,-0.0014,-0.0036,-0.0036,-0.0037,-0.0037,-0.0089,-0.009,-0.0091,0,0,0,0,0,0,0,0,0,0,0,0,0,0.0041,0.0041,0.0016,0.0016,0.0015,-0.0013,-0.0013,-0.0014,-0.0036,-0.0036,-0.0037,-0.0037,-0.0088,-0.009,-0.0091,0,0,0,0,0,0,0,0,0,0,0,0,0,0.0022,0.004,0.0016,0.0001,-0.0,-0.0013,-0.0013,-0.0014,-0.0036,-0.0036,-0.0037,-0.0037,-0.0088,-0.009,-0.0091,-0.0097,0,0,-0.0097,-0.0098,0,0,0,0,0,0,0,0,0.0024,0.0022,0.0004,0.0002,0.0,-0.0021,-0.0024,-0.0043,-0.0036,-0.0023,-0.0037,-0.0037,-0.0068,-0.0071,-0.0076,-0.01,-0.0102,-0.0097,-0.0098,-0.0099,-0.0099,0,0,0,0,0,0,0,0.0025,0.0023,0.0004,0.0003,0.0001,-0.0008,-0.0011,-0.0027,-0.0044,-0.0024,-0.0026,-0.0028,-0.0069,-0.0074,-0.0078,-0.0103,-0.0097,-0.0099,-0.01,-0.01,-0.0136,-0.0136,0,0,0,0,0,0,0.003,0.0024,0.0005,0.0003,0.0012,-0.0008,-0.0011,-0.0014,-0.0044,-0.0048,-0.0028,-0.0029,-0.0071,-0.0076,-0.008,-0.0084,-0.0099,-0.0101,-0.0102,-0.0136,-0.0136,-0.0136,0,0,0,0,0,0,0.0031,0.0029,0.0006,0.0013,0.001,-0.0008,-0.0011,-0.0015,-0.002,-0.0046,-0.0051,-0.003,-0.0072,-0.0077,-0.009,-0.0086,-0.0101,-0.0103,-0.0137,-0.0136,-0.0136,-0.0095,0,0,0,0,0,0,0.0032,0.0029,0.003,0.0014,0.001,0.0003,-0.0011,-0.0015,-0.0021,-0.0023,-0.005,-0.0055,-0.0072,-0.0087,-0.0092,-0.0089,-0.0105,-0.0137,-0.0136,-0.0136,-0.0097,-0.0094,-0.0091,0,0,0,0,0,0.0033,0.0036,0.0031,0.0028,0.0011,0.0003,0.0,-0.0014,-0.0021,-0.0021,-0.0037,-0.0054,-0.0089,-0.0089,-0.0094,-0.0092,-0.0137,-0.0137,-0.0136,-0.0098,-0.0094,-0.0091,0,0,0,0,0,0,0.0047,0.0033,0.0027,0.0026,0.0017,-0.0001,-0.0001,-0.0011,-0.0024,-0.0025,-0.0051,-0.0057,-0.0068,-0.0085,-0.0084,-0.0102,-0.0116,-0.0117,-0.0086,-0.0082,-0.0079,-0.0067,-0.0106,0,0,0,0,0,0.0051,0.005,0.0035,0.0036,0.0032,0.0016,0.0012,0.0003,-0.0011,-0.0017,-0.0035,-0.0055,-0.0071,-0.008,-0.0097,-0.0106,-0.0123,-0.0109,-0.0106,-0.0103,-0.0097,-0.0121,-0.012,-0.0135,-0.0135,-0.0135,0,0,0.0057,0.005,0.0049,0.0039,0.0031,0.0032,0.0013,0.0009,0.001,-0.0021,-0.0025,-0.0045,-0.0071,-0.008,-0.0086,-0.0094,-0.0108,-0.0103,-0.01,-0.0096,-0.0121,-0.0119,-0.0118,-0.0135,-0.0135,-0.0135,0,0,0.0071,0.0063,0.0067,0.0062,0.0054,0.0045,0.0046,0.0031,0.0024,0.0017,-0.0004,-0.002,-0.0044,-0.0061,-0.0073,-0.0065,-0.0091,-0.0072,-0.0048,-0.0071,-0.007,-0.0069,-0.0087,-0.0088,-0.0071,-0.0071,-0.0071,0,0.0079,0.0081,0.0068,0.0072,0.0072,0.0054,0.0061,0.0053,0.0036,0.0033,0.0022,-0.0011,-0.0035,-0.0046,-0.0043,-0.0058,-0.0073,-0.0058,-0.0067,-0.0067,-0.0067,-0.0085,-0.0087,-0.0069,-0.007,-0.007,-0.007,0,0.0094,0.0098,0.0102,0.0102,0.0101,0.0104,0.0093,0.0092,0.0082,0.007,0.0057,0.0026,0.0007,-0.0005,-0.0022,-0.0031,-0.0043,-0.006,-0.0074,-0.0062,-0.0083,-0.0085,-0.0067,-0.0067,-0.0068,-0.0068,0,0,0.0106,0.0112,0.0113,0.0123,0.0117,0.0121,0.0126,0.0124,0.0129,0.0107,0.0109,0.0077,0.0059,0.0044,0.0018,-0.0003,-0.0018,-0.0027,-0.0029,-0.0039,-0.0064,-0.006,-0.0063,-0.0036,-0.0036,-0.0036,-0.0078,0,0.0123,0.0142,0.0138,0.016,0.0169,0.0161,0.0169,0.0166,0.0155,0.0152,0.0119,0.0109,0.0078,0.0071,0.0045,-0.0,-0.0023,-0.0004,-0.0077,-0.0079,-0.0074,-0.0065,-0.0037,-0.008,-0.008,-0.0081,-0.0081,0,0.0138,0.015,0.0173,0.0194,0.0198,0.0209,0.0222,0.0229,0.0218,0.0209,0.0191,0.0162,0.0134,0.0104,0.0035,0.0049,-0.0001,-0.0041,-0.0044,-0.0055,-0.008,-0.0095,-0.0086,-0.0085,-0.0085,-0.0085,-0.0084,0,0.0155,0.0176,0.0198,0.0204,0.0221,0.0235,0.0248,0.0246,0.026,0.0248,0.0252,0.0207,0.0193,0.0125,0.0048,0.004,-0.0029,-0.0054,-0.0099,-0.0099,-0.0109,-0.0109,-0.0105,-0.0105,-0.0105,-0.0105,-0.0105,0,0.017,0.0191,0.0211,0.0224,0.0258,0.0263,0.0295,0.0299,0.031,0.0332,0.0287,0.0288,0.0197,0.0146,0.0066,-0.0016,-0.0018,-0.0089,-0.0108,-0.0091,-0.0089,-0.0111,-0.0111,-0.0106,-0.0106,-0.0106,-0.0105,0,0.0182,0.0194,0.0224,0.0252,0.0266,0.0293,0.0337,0.0359,0.0365,0.0393,0.0394,0.0353,0.0288,0.0193,0.0085,0.0017,-0.007,-0.0102,-0.0064,-0.0081,-0.0131,-0.0128,-0.0157,-0.0157,-0.0157,-0.0157,-0.0157,0,0.0188,0.0204,0.0246,0.0272,0.0287,0.0329,0.0359,0.0384,0.0412,0.0433,0.0448,0.04,0.0358,0.0221,0.0108,-0.0038,-0.0066,-0.0114,-0.0134,-0.012,-0.0136,-0.0133,-0.013,-0.0157,-0.0157,-0.0157,-0.0158,0,0.0198,0.0213,0.0239,0.0289,0.0328,0.0376,0.0423,0.0449,0.0483,0.0491,0.0498,0.0428,0.0356,0.0234,0.0125,0.0013,-0.0085,-0.0116,-0.0117,-0.0137,-0.0121,-0.0136,-0.0133,-0.0158,-0.0158,-0.0158,-0.0158,0,0.0206,0.0223,0.0257,0.0302,0.0355,0.0408,0.0434,0.0474,0.0505,0.0531,0.0533,0.0456,0.0415,0.0261,0.0158,0.0055,0.0015,-0.0033,-0.0039,-0.004,0.0001,0.0038,0.004,0,0,0,0,0,0.0211,0.023,0.0269,0.032,0.0374,0.0406,0.0469,0.0493,0.0528,0.0542,0.0543,0.0479,0.034,0.0278,0.0175,0.0131,-0.0019,0.0003,-0.0081,-0.0161,-0.016,-0.0133,0,0,0,0,0,0,0.0214,0.0246,0.0262,0.0325,0.0364,0.0426,0.0468,0.0496,0.0506,0.0528,0.046,0.044,0.0303,0.04,0.0169,0.0138,0.0066,-0.0057,-0.006,-0.0161,-0.0161,-0.016,-0.0131,0,0,0,0,0]}]]